Weather History for Hayward, WI

Change the Weather History Date:

Monday, August 20, 2012

  Actual Average Record
Temperature  
Mean Temperature 56 °F -  
Max Temperature 75 °F 72 °F 89 °F (2013)
Min Temperature 36 °F 50 °F 36 °F (2012)
Degree Days  
Heating Degree Days 10    
Growing Degree Days 6 (Base 50)    
Moisture  
Dew Point 43 °F    
Average Humidity 67    
Maximum Humidity 93    
Minimum Humidity 34    
Precipitation  
Precipitation 0.00 in - - ()
Sea Level Pressure  
Sea Level Pressure 30.03 in    
Wind  
Wind Speed 1 mph (WNW)    
Max Wind Speed 6 mph    
Max Gust Speed -    
Visibility 10 miles    
Events      
Averages and records for this station are not official NWS values.
T = Trace of Precipitation, MM = Missing Value Source: NWS Daily Summary

Daily Weather History Graph

Daily Weather History Graph

Search for Another Location

Airport:

Trip Planner

Search our weather history database for the weather conditions in past years. The results will help you decide how hot, cold, wet, or windy it might be!

Date:

Astronomy

Aug. 20, 2012 Rise Set
Actual Time 6:12 AM CDT 8:05 PM CDT
Civil Twilight 5:40 AM CDT 8:36 PM CDT
Nautical Twilight 5:00 AM CDT 9:16 PM CDT
Astronomical Twilight 4:17 AM CDT 9:58 PM CDT
Moon 9:50 AM CDT (8/20) 9:11 PM CDT (8/20)
Length of Visible Light 14h 56m
Length of Day
13h 52m
Waxing Crescent, 11% of the Moon is Illuminated
Aug 20
Waxing Crescent
Aug 24
First Quarter
Aug 31
Full
Sep 8
Last Quarter
Sep 15
New

Hourly Weather History & Observations

Time (CDT) Temp. Dew Point Humidity Pressure Visibility Wind Dir Wind Speed Gust Speed Precip Events Conditions
12:53 AM 41.0 °F 37.9 °F 89% 30.04 in 10.0 mi Calm Calm - N/A   Clear
1:53 AM 39.0 °F 37.0 °F 93% 30.04 in 10.0 mi Calm Calm - N/A   Clear
2:53 AM 37.9 °F 36.0 °F 93% 30.04 in 10.0 mi Calm Calm - N/A   Clear
3:53 AM 37.0 °F 35.1 °F 93% 30.04 in 10.0 mi Calm Calm - N/A   Clear
4:53 AM 36.0 °F 34.0 °F 93% 30.04 in 10.0 mi Calm Calm - N/A   Clear
5:53 AM 36.0 °F 34.0 °F 93% 30.04 in 10.0 mi Calm Calm - N/A   Clear
6:53 AM 37.9 °F 36.0 °F 93% 30.05 in 10.0 mi Calm Calm - N/A   Clear
7:53 AM 46.0 °F 43.0 °F 89% 30.06 in 10.0 mi Calm Calm - N/A   Clear
8:53 AM 55.0 °F 46.9 °F 74% 30.06 in 10.0 mi Calm Calm - N/A   Clear
9:53 AM 64.0 °F 46.9 °F 54% 30.05 in 10.0 mi Variable 3.5 mph - N/A   Clear
10:53 AM 69.1 °F 44.1 °F 40% 30.04 in 10.0 mi Variable 3.5 mph - N/A   Partly Cloudy
11:53 AM 69.1 °F 43.0 °F 39% 30.04 in 10.0 mi Variable 4.6 mph - N/A   Mostly Cloudy
12:53 PM 70.0 °F 42.1 °F 36% 30.03 in 10.0 mi Calm Calm - N/A   Clear
1:53 PM 73.0 °F 45.0 °F 37% 30.02 in 10.0 mi Variable 5.8 mph - N/A   Mostly Cloudy
2:53 PM 71.1 °F 44.1 °F 38% 30.01 in 10.0 mi Variable 4.6 mph - N/A   Clear
3:53 PM 73.9 °F 45.0 °F 35% 30.01 in 10.0 mi Variable 5.8 mph - N/A   Clear
4:53 PM 73.0 °F 44.1 °F 35% 30.00 in 10.0 mi WNW 5.8 mph - N/A   Partly Cloudy
5:53 PM 75.0 °F 45.0 °F 34% 29.99 in 10.0 mi Variable 3.5 mph - N/A   Clear
6:53 PM 73.0 °F 45.0 °F 37% 29.99 in 10.0 mi Calm Calm - N/A   Mostly Cloudy
7:53 PM 66.0 °F 50.0 °F 56% 30.00 in 10.0 mi Calm Calm - N/A   Overcast
8:53 PM 57.9 °F 52.0 °F 81% 30.01 in 10.0 mi Calm Calm - N/A   Clear
9:53 PM 53.1 °F 50.0 °F 89% 30.01 in 10.0 mi Calm Calm - N/A   Scattered Clouds
10:53 PM 50.0 °F 48.0 °F 93% 30.02 in 10.0 mi Calm Calm - N/A   Partly Cloudy
11:53 PM 48.9 °F 46.0 °F 90% 30.03 in 10.0 mi Calm Calm - N/A   Clear